View from above orbital plane
|
View from above satellite
|
Ground track
|
The orbit data is extracted from the following two-line orbital elements,
1 21419U 91041B 21055.56113496 .00000002 00000-0 10122-4 0 9992
2 21419 74.0422 353.0871 0041873 309.8955 49.8518 14.33982778553434
Epoch (UTC): | 24 February 2021 13:28:02 |
Eccentricity: | 0.0041873 |
inclination: | 74.0422° |
perigee height: | 748 km |
apogee height: | 808 km |
right ascension of ascending node: | 353.0871° |
argument of perigee: | 309.8955° |
revolutions per day: | 14.33982778 |
mean anomaly at epoch: | 49.8518° |
orbit number at epoch: | 55343 |
The dashed part of the orbit path shows where the satellite is in the earth's shadow,
|
|